MB7UWV-13 Weather Reports


time (UTC)temp
F
wind
direction
speed
knots
gust
knots
rain 1hr
in
rain 24hr
in
rain mn
in
humidity
%
barometer
mb
20260506050325 40 357 0.0 0.9 0.00 0.00 0.00 75 1003.4
20260506044825 39 320 0.0 0.0 0.00 0.00 0.00 77 1003.4
20260506043326 38 320 0.9 1.7 0.00 0.00 0.00 79 1003.4
20260506041826 38 348 0.9 0.9 0.00 0.00 0.00 81 1003.0
20260506040326 38 43 0.0 0.0 0.00 0.00 0.00 82 1003.0
20260506034826 38 325 0.0 0.0 0.00 0.00 0.00 82 1003.4
20260506033328 38 325 0.0 0.0 0.00 0.00 0.00 81 1003.0
20260506031826 38 278 0.0 0.9 0.00 0.00 0.00 81 1003.4
20260506030325 39 181 0.0 0.0 0.00 0.00 0.00 80 1003.4
20260506024826 39 112 0.0 0.0 0.00 0.00 0.00 79 1003.4
20260506023325 40 122 0.0 0.9 0.00 0.00 0.00 79 1003.4
20260506021825 40 127 0.9 1.7 0.00 0.00 0.00 79 1003.4
20260506020325 39 114 0.0 0.0 0.00 0.00 0.00 80 1003.4
20260506014825 40 114 0.0 0.0 0.00 0.00 0.00 79 1003.4
20260506013327 40 197 0.0 0.0 0.00 0.00 0.00 78 1003.7
20260506011826 41 178 0.0 0.0 0.00 0.00 0.00 77 1003.4
20260506010327 42 10 0.0 0.0 0.00 0.00 0.00 77 1003.7
20260506004830 42 339 0.0 0.9 0.00 0.00 0.00 76 1003.7
20260506003325 42 316 0.0 0.0 0.00 0.00 0.00 76 1003.7
20260506001825 43 295 0.0 0.0 0.00 0.00 0.00 75 1003.4
20260506000325 43 289 1.7 1.7 0.00 0.00 0.00 77 1003.4
20260505234825 43 62 0.0 0.9 0.00 0.00 0.00 78 1003.4
20260505233326 43 94 0.0 0.0 0.00 0.00 0.00 78 1003.4
20260505231825 43 249 0.9 0.9 0.00 0.00 0.00 78 1003.4
20260505230325 44 30 0.9 0.9 0.00 0.00 0.00 77 1003.7
20260505224825 44 138 1.7 2.6 0.00 0.00 0.00 75 1003.7
20260505223325 44 97 3.5 5.2 0.00 0.00 0.00 76 1003.4
20260505221825 44 82 2.6 2.6 0.00 0.00 0.00 77 1003.4
20260505220346 44 149 0.9 0.9 0.00 0.00 0.00 77 1003.7
20260505214826 44 109 2.6 3.5 0.00 0.00 0.00 76 1003.4
20260505213326 44 102 3.5 6.1 0.00 0.00 0.00 76 1003.4
20260505211824 44 133 0.9 0.9 0.00 0.00 0.00 76 1003.4
20260505210325 44 105 0.9 0.9 0.00 0.00 0.00 75 1003.7
20260505204825 45 159 0.0 0.9 0.00 0.00 0.00 75 1003.4
20260505203324 45 34 0.0 0.0 0.00 0.00 0.00 75 1003.4
20260505201825 45 108 1.7 3.5 0.00 0.00 0.00 74 1003.4
20260505200325 45 174 0.0 0.0 0.00 0.00 0.00 74 1003.0
20260505194825 45 120 0.9 1.7 0.00 0.00 0.00 74 1003.0
20260505193325 46 275 1.7 2.6 0.00 0.00 0.00 74 1003.0
20260505191826 46 102 1.7 1.7 0.00 0.00 0.00 75 1002.7
20260505190325 46 151 1.7 1.7 0.00 0.00 0.00 75 1002.7
20260505184825 46 35 0.0 0.9 0.00 0.00 0.00 76 1002.7
20260505183325 46 127 0.9 1.7 0.00 0.00 0.00 75 1002.7
20260505181824 47 119 3.5 6.1 0.00 0.00 0.00 75 1002.7
20260505180331 47 336 0.9 1.7 0.00 0.00 0.00 75 1002.4
20260505174825 48 115 0.9 0.9 0.00 0.00 0.00 75 1002.7
20260505173325 48 149 1.7 2.6 0.00 0.00 0.00 75 1002.4
20260505171825 49 306 1.7 1.7 0.00 0.00 0.00 73 1002.4
20260505170325 50 282 0.9 1.7 0.00 0.00 0.00 72 1002.4
20260505164825 52 178 0.9 0.9 0.00 0.00 0.00 71 1002.4
20260505163325 52 306 0.9 1.7 0.00 0.00 0.00 70 1002.0
20260505161825 52 356 0.9 0.9 0.00 0.00 0.00 69 1002.0
20260505160325 51 231 0.0 0.0 0.00 0.00 0.00 71 1002.0
20260505153325 51 53 2.6 5.2 0.00 0.00 0.00 72 1002.0
20260505151826 52 293 0.9 1.7 0.00 0.00 0.00 72 1002.0
20260505150325 52 278 0.9 0.9 0.00 0.00 0.00 72 1002.0
20260505140325 57 278 3.5 5.2 0.00 0.00 0.00 55 1001.4
20260505124827 55 335 0.0 0.9 0.00 0.00 0.00 63 1001.7
20260505123325 55 275 0.0 0.0 0.00 0.00 0.00 63 1002.0
20260505121826 54 228 0.0 0.0 0.00 0.00 0.00 67 1002.0
20260505120326 54 218 0.9 1.7 0.00 0.00 0.00 66 1002.0
20260505114825 53 283 0.0 0.0 0.00 0.00 0.00 65 1002.0
20260505113326 53 317 2.6 2.6 0.00 0.00 0.00 65 1002.0
20260505111825 52 304 3.5 3.5 0.00 0.00 0.00 66 1002.0
20260505110325 52 321 2.6 3.5 0.00 0.00 0.00 68 1002.0
20260505101825 52 278 0.0 0.9 0.00 0.00 0.00 69 1002.4
20260505100325 52 328 0.9 0.9 0.00 0.00 0.00 70 1002.0
20260505094826 51 323 0.9 1.7 0.00 0.00 0.00 73 1002.0
20260505093326 50 286 0.0 0.0 0.00 0.00 0.00 73 1002.0
20260505091825 50 293 0.0 0.0 0.00 0.00 0.00 75 1002.4
20260505090326 50 312 1.7 1.7 0.00 0.00 0.00 73 1002.4
20260505084825 50 275 0.9 0.9 0.00 0.00 0.00 75 1002.0
20260505083326 50 183 0.0 0.0 0.00 0.00 0.00 80 1002.4
20260505081825 49 157 0.0 0.9 0.00 0.00 0.00 86 1002.4
20260505080326 47 152 0.0 0.0 0.00 0.00 0.00 92 1002.4
20260505074827 45 153 0.0 0.0 0.00 0.00 0.00 95 1002.4
20260505073327 44 159 0.0 0.9 0.00 0.00 0.00 95 1002.4
20260505071826 43 98 0.0 0.0 0.00 0.00 0.00 96 1002.4
20260505070326 42 84 0.0 0.0 0.00 0.00 0.00 96 1002.0
20260505064825 41 47 0.0 0.0 0.00 0.00 0.00 97 1002.4
20260505063325 39 122 0.0 0.9 0.00 0.00 0.00 96 1002.0
20260505061825 38 90 0.9 1.7 0.00 0.00 0.00 96 1002.4
20260505060324 38 117 0.9 0.9 0.00 0.00 0.00 96 1002.4
20260505054826 36 111 1.7 2.6 0.00 0.00 0.00 97 1002.4
20260505053326 35 127 0.0 0.9 0.00 0.00 0.00 96 1002.4